Presure
196 193 208 226 220 196 191 188 180 130 90 94 118 87 146 108 124 151 155 154 154 133 154 168 176 165 164 163 174 171 169 174 173 171 183 175 185 188 178 180 196 189 171
198 198 191 116 218 213 201 192 184 178 147 167 111 143 97 140 163 153 150 149 161 168 160 160 164 162 158 163 161 165 173 177 174 180 171 179 182 185 176 184 185 190 175
188 189 190 199 191 187 210 202 192 186 180 176 174 171 171 83 170 121 77 174 173 177 164 159 163 169 162 162 170 168 175 176 176 173 176 182 184 171 189 178 186 173 174
186 192 190 190 203 174 96 166 171 196 188 167 167 181 75 171 167 169 177 176 174 179 166 171 171 161 173 173 172 179 170 179 169 173 182 179 174 186 178 187 179 170 173
218 199 196 190 195 196 179 174 177 170 198 191 189 191 183 177 187 184 172 170 171 177 178 179 178 171 179 175 179 169 179 174 175 179 182 174 187 187 178 186 172 180 189
231 130 127 193 190 187 170 176 177 178 113 187 186 182 191 188 187 177 180 174 178 175 181 180 181 179 177 178 177 185 181 183 187 184 179 189 187 179 166 172 180 184 176
235 229 219 204 190 186 178 183 182 180 179 182 178 179 183 190 182 183 181 181 182 181 178 180 179 177 187 192 190 185 185 189 185 179 163 187 177 171 173 181 181 176 208
291 223 229 222 200 184 182 177 180 174 173 171 182 181 164 176 180 183 183 186 186 164 184 170 169 188 188 188 175 188 188 181 177 187 175 178 181 172 173 187 180 210 200
310 266 223 213 217 198 182 181 180 183 185 188 173 183 184 173 171 172 182 191 172 155 189 168 162 168 171 171 187 183 163 176 187 172 177 180 171 179 186 183 202 209 210
307 290 257 217 205 206 189 185 188 188 182 178 175 178 185 182 175 169 173 165 162 169 169 164 168 171 170 184 181 168 177 174 174 178 175 168 184 185 216 201 204 212 197
310 330 277 254 220 202 203 186 190 190 184 182 180 177 175 180 181 177 169 170 172 171 164 166 171 173 182 172 176 171 168 177 180 171 179 185 199 209 199 200 189 209 215
313 314 324 277 237 214 202 205 200 194 189 189 182 175 174 135 182 178 177 173 171 168 166 171 177 176 178 178 165 174 178 177 172 183 190 213 211 206 191 180 207 211 217
303 306 309 311 280 240 215 205 208 200 195 176 165 182 182 179 178 169 172 173 173 179 179 179 169 160 177 171 175 179 173 179 187 203 199 178 204 195 184 192 197 217 227
297 296 299 312 322 269 235 212 200 203 189 190 190 188 182 176 176 182 174 177 174 175 163 167 180 170 172 179 174 174 178 191 202 198 213 185 192 209 194 202 205 225 233
295 295 289 273 306 298 171 163 204 193 188 185 187 189 188 183 178 179 176 171 165 181 181 173 165 175 150 171 178 158 209 199 198 200 176 193 193 201 210 210 225 238 249
297 283 277 269 279 295 280 264 151 153 192 174 182 186 189 183 155 180 181 182 181 177 162 168 150 172 179 177 200 198 197 182 192 173 195 190 202 207 206 229 240 253 291
290 279 284 280 280 191 152 274 254 203 201 181 188 186 184 183 183 181 180 180 163 185 151 174 174 175 194 204 190 193 178 165 176 200 185 205 213 206 232 243 253 330 392
292 276 272 278 288 286 245 265 258 237 222 196 189 186 181 179 168 178 188 184 168 167 173 182 191 199 198 194 182 196 168 198 191 170 208 213 210 237 248 262 372 406 396
273 273 271 272 271 271 268 256 251 233 214 198 201 197 188 190 190 158 179 185 177 190 192 185 208 195 191 185 186 176 190 184 160 202 209 219 238 253 278 390 414 403 378
258 258 258 256 254 256 257 251 242 232 218 216 209 192 162 189 183 174 191 208 191 181 159 194 193 187 184 173 193 183 185 175 195 205 225 242 259 326 425 409 404 381 364
242 244 246 248 250 253 256 256 243 234 225 164 188 210 202 195 200 204 203 192 206 176 191 172 173 173 187 185 179 185 179 197 209 226 246 287 324 426 412 399 376 391 423
225 226 229 232 235 236 170 198 242 243 209 235 230 213 222 210 195 210 203 192 183 174 176 177 183 178 183 191 193 163 203 221 236 255 326 325 428 413 398 371 429 423 403
224 223 222 221 220 177 216 217 216 215 213 200 211 212 215 219 164 182 181 184 182 169 182 171 185 190 188 185 163 204 224 242 263 322 319 427 416 394 366 429 420 368 487
218 218 217 211 217 218 217 101 165 156 189 200 195 176 182 186 182 179 174 167 188 160 188 179 176 191 180 195 217 229 247 327 316 340 425 412 393 363 436 475 363 367 348
203 203 204 204 200 193 191 143 184 165 185 181 169 174 173 174 167 172 173 176 187 174 171 189 188 168 195 224 235 315 320 310 402 427 413 394 363 432 503 360 348 336 332
190 188 188 184 134 183 128 171 173 177 169 184 187 177 174 166 170 183 187 177 175 179 188 188 187 214 230 257 309 318 307 408 416 409 391 365 425 479 362 335 331 338 328
Wind_Speed
95 89 90 86 81 77 78 75 73 57 42 51 61 31 59 59 48 58 56 56 57 53 56 60 63 58 59 62 70 69 70 73 74 74 80 78 84 85 80 81 89 85 75
99 91 87 44 77 77 78 76 76 77 64 70 53 60 37 55 63 61 61 63 62 63 59 58 60 61 62 66 67 69 76 78 76 81 77 83 86 88 84 87 88 91 84
88 91 89 89 77 74 75 75 78 79 78 72 73 72 71 39 69 52 37 67 69 68 61 61 63 68 67 69 75 74 80 80 80 81 83 88 88 84 93 89 93 86 87
87 100 90 86 81 71 36 75 77 78 76 65 67 74 36 72 70 67 71 72 71 72 64 67 68 67 74 77 78 82 77 84 80 83 89 89 88 95 91 97 93 89 95
111 104 99 90 83 82 76 77 78 73 73 74 74 75 75 73 73 71 73 71 69 71 71 72 73 74 79 79 83 78 86 83 86 89 93 90 97 97 93 99 96 104 109
111 56 51 90 79 76 65 77 80 76 40 73 74 73 72 73 72 72 75 74 75 69 73 74 77 78 80 83 84 90 88 90 93 94 93 99 100 97 89 97 104 108 104
111 107 114 98 83 79 75 80 83 80 75 74 72 73 72 73 71 74 76 77 76 75 72 75 78 79 86 87 88 89 90 93 94 94 82 101 98 96 100 107 104 100 110
113 106 112 103 92 76 80 81 85 78 72 69 71 73 71 69 74 76 76 77 78 67 77 71 73 84 85 86 84 89 91 92 93 99 98 101 105 100 102 113 104 110 117
79 110 105 98 94 89 82 88 88 83 76 73 70 72 73 74 74 71 73 76 69 65 78 73 74 78 80 82 87 89 88 93 100 98 102 107 100 111 117 108 121 122 119
65 89 110 102 95 92 92 91 90 83 79 72 69 73 75 76 73 71 72 67 68 71 73 74 78 81 82 87 88 89 94 96 100 105 105 98 116 117 118 122 123 124 123
45 46 103 107 97 96 98 87 86 85 79 76 73 73 75 75 77 73 70 70 72 73 74 77 80 83 86 85 90 91 94 102 106 100 111 119 119 119 114 118 115 129 131
37 41 48 100 104 99 93 93 90 85 81 81 76 74 75 48 77 73 72 71 73 75 76 80 83 83 87 91 89 96 101 105 103 115 120 116 117 119 124 104 129 129 132
33 41 50 54 99 101 93 89 86 82 82 71 65 77 78 76 75 69 70 73 77 81 81 83 80 79 90 92 97 102 101 109 116 118 119 105 124 128 116 114 131 134 138
34 45 47 47 61 97 97 86 79 78 77 78 79 79 77 73 74 78 73 76 77 79 73 79 89 87 92 99 98 101 106 116 114 120 117 109 126 128 129 131 134 139 145
36 42 42 46 52 68 49 45 78 78 77 77 77 78 78 75 74 77 78 75 72 86 87 84 83 94 73 96 102 83 112 112 115 120 109 129 115 132 133 134 140 148 152
35 41 40 36 38 54 76 87 34 33 78 64 74 76 75 74 55 77 81 83 85 82 76 85 70 93 98 99 109 109 111 106 118 108 130 126 133 133 135 143 149 155 158
41 38 39 47 40 31 27 70 78 65 77 64 72 71 71 73 77 78 79 80 71 87 67 89 92 94 105 102 108 108 107 90 110 127 118 133 135 135 142 148 154 148 103
38 34 32 30 31 34 37 57 67 76 78 73 69 68 66 67 60 71 82 81 73 80 86 93 100 102 103 104 106 111 96 123 124 97 133 135 136 144 148 153 122 92 91
25 22 20 22 24 27 36 51 61 70 66 65 70 70 69 72 75 60 73 79 81 89 93 96 95 100 103 107 109 108 119 123 82 132 135 138 144 150 152 112 90 87 87
21 18 15 15 19 25 32 44 56 64 65 69 71 64 47 66 68 68 80 88 87 85 67 94 97 101 107 102 118 115 121 101 129 133 139 146 150 143 91 92 87 85 83
17 12 9 7 9 13 20 30 47 56 62 45 52 70 71 71 76 80 82 80 81 77 90 82 100 103 112 113 114 122 108 130 134 138 145 145 137 88 87 86 85 77 64
9 5 3 5 10 15 23 27 33 39 40 52 59 59 67 71 71 76 75 79 85 83 94 100 107 102 114 120 124 83 131 135 138 144 133 132 85 84 83 81 66 63 59
2 2 5 9 13 23 22 27 32 38 44 47 53 58 62 66 54 71 78 84 88 85 99 97 109 113 118 117 82 130 134 140 143 130 129 83 80 80 78 63 60 59 39
3 6 10 14 17 21 25 23 36 32 38 45 50 56 62 67 73 78 81 79 92 75 102 105 105 117 109 124 130 133 139 126 128 123 79 77 76 74 58 50 54 52 51
10 12 15 17 21 25 29 31 39 41 48 51 50 62 67 73 73 81 85 83 96 100 98 110 114 90 122 129 133 128 126 127 98 75 73 72 70 55 42 51 48 48 47
20 23 26 30 34 36 29 41 45 50 51 59 63 68 71 73 81 87 91 96 101 102 111 112 109 124 129 133 128 124 124 93 78 72 69 67 52 42 46 45 44 42 42
Wind_Direction
244 243 241 238 237 239 244 245 247 253 263 262 262 277 264 274 269 269 273 274 275 282 281 287 289 293 293 292 298 298 297 300 301 301 305 305 307 307 303 304 308 308 304
242 243 244 257 236 235 238 241 244 247 256 254 264 264 280 269 268 269 271 273 277 278 283 287 290 291 288 292 292 295 299 300 301 303 301 304 305 306 302 306 308 308 307
239 242 243 242 239 238 237 239 241 243 249 252 255 259 261 293 269 276 294 274 276 277 284 285 289 288 291 291 294 295 298 299 301 300 303 303 305 301 306 307 308 307 307
234 240 240 242 238 242 262 243 245 241 246 252 255 255 291 263 268 272 273 274 277 278 284 286 289 288 292 292 293 295 296 298 298 301 302 302 301 305 306 306 307 307 308
227 233 238 237 237 236 239 243 245 247 242 246 249 251 256 262 261 265 271 275 278 280 283 286 288 289 289 291 293 294 296 298 301 301 301 301 304 304 305 306 307 310 309
226 237 239 237 237 237 239 242 246 246 264 246 249 254 254 258 261 266 267 274 276 282 283 285 285 287 289 291 292 292 295 298 299 300 301 303 303 304 306 306 308 309 311
225 223 231 232 234 234 238 240 244 246 245 247 251 254 255 256 263 263 267 271 275 278 283 284 285 287 288 288 290 293 296 297 299 300 300 302 304 306 307 307 309 311 306
221 223 227 228 231 234 236 240 244 247 248 250 250 253 262 260 260 262 266 269 273 280 280 286 287 285 286 289 295 295 296 298 300 301 302 304 304 307 304 307 310 305 309
221 222 225 229 227 230 235 238 242 246 248 247 251 253 255 260 264 269 269 269 276 283 278 286 288 290 292 294 294 296 295 299 300 302 304 304 306 306 308 309 307 307 306
220 217 222 224 226 226 231 237 239 243 247 248 249 253 254 258 263 269 271 277 281 282 284 286 287 290 292 293 296 296 299 300 302 303 304 305 305 307 303 306 307 306 309
218 208 220 223 222 225 226 236 238 240 245 249 250 253 258 260 262 267 273 276 278 281 283 285 289 290 292 294 297 297 300 301 302 304 303 304 305 303 304 307 310 307 308
211 206 202 220 222 223 227 228 234 237 243 246 250 253 258 265 263 268 271 276 278 280 283 287 289 292 294 296 296 299 300 301 304 302 303 303 303 304 309 310 308 308 306
204 193 197 208 220 224 225 228 230 234 238 245 251 252 256 261 265 272 274 276 279 281 285 288 290 292 295 295 298 299 301 301 301 302 303 304 304 306 312 307 311 309 310
195 194 198 198 204 222 225 226 230 232 239 242 246 250 256 262 267 269 276 277 282 285 288 289 291 293 295 295 298 300 300 299 301 302 302 308 307 305 310 310 310 310 309
191 188 189 201 210 217 232 235 226 231 237 242 246 250 254 259 266 269 275 280 285 283 286 291 292 293 298 297 298 303 297 300 300 303 311 306 309 308 309 310 310 309 308
179 181 189 201 216 213 223 225 248 256 236 250 248 251 254 260 273 270 273 276 279 286 290 290 296 292 295 298 296 297 299 303 302 313 305 309 308 309 310 311 310 309 309
172 184 187 197 201 215 230 227 227 236 234 243 248 253 258 262 266 270 275 278 287 284 294 289 291 295 293 294 297 298 305 310 311 303 308 307 308 309 309 310 309 313 313
170 177 193 206 199 209 224 225 228 230 235 241 249 255 261 266 274 273 274 281 286 286 287 289 290 291 292 294 299 299 311 303 307 313 307 308 309 309 310 309 313 313 312
137 150 165 178 189 203 218 227 230 232 239 244 248 253 261 265 269 282 281 281 284 285 287 289 288 290 292 298 300 310 303 308 313 308 308 308 309 310 308 314 314 314 313
114 127 147 174 200 216 227 233 234 237 242 246 250 259 281 270 275 278 280 282 283 288 300 287 288 293 298 308 299 306 307 311 308 308 308 309 309 312 316 315 315 314 312
93 104 126 165 202 226 238 244 243 244 247 267 262 261 266 271 274 277 277 284 280 287 287 298 301 307 296 301 307 305 310 307 307 308 309 310 313 315 315 315 315 314 315
96 107 154 210 230 238 268 263 253 257 267 262 264 270 270 272 276 276 276 280 286 298 296 300 296 305 303 302 303 315 305 305 308 309 311 313 316 315 315 314 315 315 314
107 224 249 255 256 271 261 262 262 263 264 269 269 270 272 274 300 284 286 287 290 309 294 307 299 300 302 306 316 305 305 308 310 313 314 317 316 315 315 316 316 315 319
234 248 254 261 259 260 261 287 281 281 270 268 271 290 284 282 284 288 299 309 291 311 296 302 307 300 308 305 304 306 308 312 312 314 317 316 316 316 317 320 316 317 318
251 251 252 254 259 270 272 284 278 281 279 284 296 292 293 292 306 300 301 302 296 303 307 300 301 311 304 304 306 312 312 313 316 316 316 316 317 319 325 317 318 319 320
269 273 273 279 287 281 287 295 294 289 296 284 282 290 295 307 304 295 295 299 302 303 300 302 304 303 305 308 313 313 313 316 317 316 317 317 319 325 317 317 320 323 325